Location: Newark
(34.6283°N, 36.0776°E)
Time: 01:10:50
(UTC+00:00)

A-11 Canister half - Pass Details

Date: 18 September 2019
Orbit: 1527 x 1682 km, 47.3° (Epoch: 20 October)

Event Time Altitude Azimuth Distance (km) Brightness Sun altitude
Rises 07:15:33 0° 303° (WNW) 4,797 11.2 44.8°
Reaches altitude 10° 07:18:43 10° 307° (NW) 3,832 10.8 45.3°
Maximum altitude 07:28:24 59° 26° (NNE) 1,857 10.0 46.8°
Drops below altitude 10° 07:38:18 10° 105° (ESE) 3,926 11.9 48.2°
Sets 07:41:35 0° 109° (ESE) 4,921 12.2 48.7°
